Tracking 29892 objects as of 21-Nov-2024
HD Live streaming from Space Station
objects crossing your sky now

STARLINK-30588

Track STARLINK-30588 now!
10-day predictions
STARLINK-30588 is classified as:


NORAD ID: 58062
Int'l Code: 2023-158M
Perigee: 564.9 km
Apogee: 567.5 km
Inclination: 43.0 °
Period: 95.8 minutes
Semi major axis: 6937 km
RCS: Unknown
Launch date: October 13, 2023
Source: United States (US)
Launch site: AIR FORCE EASTERN TEST RANGE (AFETR)
Your satellite tracking list
Your tracking list is empty




NASA's NSSDC Master Catalog

Two Line Element Set (TLE):
1 58062U 23158M   24324.90584277  .00001777  00000-0  14653-3 0  9991
2 58062  43.0034  89.9916 0001885 292.7586  67.3057 15.02555643 62103
Source of the keplerian elements: AFSPC